Weather in Zemlyanichny

Russia / Ulyanovsk Oblast     53°38′38″N   47°04′46″E
temp.,
°C
wind,
m/s
gust,
m/s
humid.,
%
clouds,
%
prec.,
mm/h
press.,
hPa
HPBL,
m
25 june, sat
sat2501:00+13nne39924 0.0 1012153
04:00+12n36920 0.0 1013100
07:00+16n37810 0.0 1013226
10:00+21nne57624 0.0 1014753
13:00+23n565214 0.0 10141883
16:00+24n675428 0.0 10141787
19:00+20n497210 0.1 1014340
22:00+16nnw228341 0.1 101513
26 june, sun
sun2601:00+17nw347419 0.0 101669
04:00+14n33930 0.0 101658
07:00+16n49810 0.0 1018324
10:00+19n69550 0.0 10191028
13:00+20nne68460 0.0 10191341
16:00+21n57450 0.0 10191545
19:00+19nnw58625 0.0 1019595
22:00+13n11790 0.0 102011
27 june, mon
mon2701:00+12nnw22810 0.0 102111
04:00+11wnw22800 0.0 102111
07:00+15w24720 0.0 1021128
10:00+21w45580 0.0 1020636
13:00+24w68570 0.0 10181068
16:00+25w7106696 0.4 10161380
19:00+23wnw611784 3.8 1014675
22:00+19w47910 5.6 1014105
28 june, tue
tue2801:00+16n239419 0.3 101445
04:00+14nnw39964 0.3 1014225
07:00+13ne599325 0.0 1017531
10:00+15ne67620 0.1 1018993
13:00+17nne675229 0.0 10191826
16:00+17nne675280 0.0 10191748
19:00+15nne566214 0.0 10201107
22:00+9nne22805 0.0 102124
29 june, wed
wed2901:00+8nnw22820 0.0 102112
04:00+7nw33855 0.0 102240
07:00+10n47695 0.0 1022268
10:00+15n57540 0.0 10211146
13:00+17n67445 0.0 10211916
16:00+18nne68465 0.0 10211870
19:00+16nne46601 0.0 1021834
22:00+11nnw22760 0.0 102213